Regional Weather Roundup
Issued by NWS

Home | Current Version | Previous Version | Text Only | Print | Product List | Glossary Off
Versions: 1 2 3 4 5 6 7 8 9 10 11 12 13 14 15 16 17 18 19 20 21 22 23 24 25 26 27 28 29 30 31 32 33 34 35 36 37 38 39 40 41 42 43 44 45 46 47 48 49 50

000
ASUS45 KABQ 240510
RWRNM
NEW MEXICO REGIONAL WEATHER ROUNDUP
NATIONAL WEATHER SERVICE ALBUQUERQUE NM
1100 PM MDT THU MAR 23 2017

NOTE: "FAIR" MEANS FEW OR NO CLOUDS BELOW 12,000 FEET AGL WITH NO
       SIGNIFICANT WEATHER OR OBSTRUCTIONS TO VISION.

      THIS PRODUCT IS RELEASED AS TWO VERSIONS.  ONE VERSION NEAR
      THE TOP OF THE HOUR CONTAINING PRELIMINARY DATA FROM ALBUQUERQUE
      AND OTHER STATIONS.  A FINAL VERSION WITH ADDITIONAL DATA IS
      ISSUED ABOUT 10 MINUTES AFTER THE HOUR.

NMZ501-503-504-510>518-240600-
NORTHWEST PLATEAU/NORTHCENTRAL MOUNTAINS

CITY           SKY/WX    TMP DP  RH WIND       PRES   REMARKS
FARMINGTON     LGT RAIN  41  32  70 W17       29.82R
LOS ALAMOS     CLOUDY    35  27  73 S14G20    29.78R WCI  25
SANTA FE       FAIR      36  31  82 W23G32    29.79R WCI  24
TAOS             N/A     34  25  69 SW14      29.73R WCI  24
ANGEL FIRE     LGT SNOW  29  26  87 W21G33    29.66S WCI  16

$$
NMZ402-403-502-505>509-240600-
WESTCENTRAL MOUNTAINS/SOUTHWEST MOUNTAINS

CITY           SKY/WX    TMP DP  RH WIND       PRES   REMARKS
GALLUP         CLOUDY    34  32  92 SW13      29.96R WCI  25
GRANTS         MOCLDY    33  30  88 CALM      29.93R
SILVER CITY    FAIR      37  29  75 NW8       30.09R WCI  30

$$
NMZ407-409-411-412-240600-
SOUTHERN DESERTS

CITY           SKY/WX    TMP DP  RH WIND       PRES   REMARKS
DEMING         FAIR      44  30  57 NW12      30.07R
LAS CRUCES     FAIR      47  25  41 W20G28    30.03R
HOLLOMAN AFB   FAIR      49  24  38 W13       30.01F
ALAMOGORDO     FAIR      46  25  42 SE6       30.00F
T OR C         FAIR      45  21  38 CALM      29.98R

$$
NMZ519>523-240600-
CENTRAL VALLEYS/CENTRAL HIGHLANDS

CITY           SKY/WX    TMP DP  RH WIND       PRES   REMARKS
ALBUQUERQUE    MOCLDY    42  30  62 SW10G22   29.89S
DOUBLE EAGLE   FAIR      37  30  74 W29G37    29.85S WCI  25
MORIARTY ARPT  MOCLDY    38  32  79 W43G49    29.79F WCI  23
CLINES CORNERS MOCLDY    32  27  81 W32G43    29.83R WCI  17
BELEN          MOCLDY    43  27  54 W15       29.93R
SOCORRO        FAIR      47  19  32 W16G26    29.90F

$$
NMZ524>526-539-540-240600-
SOUTHCENTRAL MOUNTAINS

CITY           SKY/WX    TMP DP  RH WIND       PRES   REMARKS
RUIDOSO        FAIR      37  16  41 W18G24    29.96F WCI  27

$$
NMZ527>531-240600-
NORTHEAST HIGHLANDS/NORTHEAST PLAINS

CITY           SKY/WX    TMP DP  RH WIND       PRES   REMARKS
LAS VEGAS      FAIR      35  27  72 SW29G41   29.69R WCI  22
RATON          LGT RAIN  43  25  49 S8        29.50S
CLAYTON        FAIR      46  33  60 S26       29.55S

$$
NMZ532>537-240600-
EASTCENTRAL PLAINS

CITY           SKY/WX    TMP DP  RH WIND       PRES   REMARKS
SANTA ROSA     FAIR      46  27  47 W26G40    29.74S
TUCUMCARI      FAIR      52  28  39 SW31G40   29.66F
CANNON AFB     FAIR      49  26  42 SW17      29.80R
CLOVIS AIRPORT FAIR      48  27  43 W21       29.79F

$$
NMZ028-029-538-240600-
SOUTHEAST PLAINS

CITY           SKY/WX    TMP DP  RH WIND       PRES   REMARKS
ROSWELL        FAIR      56  18  22 W24G35      N/A
ARTESIA        FAIR      55  19  24 W35G43    29.88R
CARLSBAD       FAIR      58  19  22 MISG      29.85S
HOBBS          FAIR      57  16  19 W23       29.88S


$$



USA.gov is the U.S. government's official web portal to all federal, state and local government web resources and services.